This demonstration page uses our WeatherBlox Daily Observations layout. Learn more.

Left ArrowRight Arrow

39.92423, -83.80882

Hourly Observations for March 30, 2017

Temp ( °F °C ) Dew Point ( °F °C ) Humidity (%) Winds ( mph kmh ) Pressure ( in mb ) Visibility ( mi km ) Precip ( " mm )
12:56 am 00:56 Clear 49 9.4 38 3.3 66 66 E 13 20 30.03 1017 10 16.0934 0 0
1:56 am 01:56 Cloudy 48 8.9 37 2.8 66 66 E 12 19 30.01 1016 10 16.0934 0 0
2:56 am 02:56 Mostly Cloudy 49 9.4 37 2.8 64 64 E 12 19 29.98 1015 10 16.0934 0 0
3:56 am 03:56 Partly Cloudy 48 8.9 37 2.8 66 66 E 12 19 29.97 1015 10 16.0934 0 0
4:56 am 04:56 Mostly Clear 48 8.9 36 2.2 63 63 E 14 22 29.93 1014 10 16.0934 0 0
5:56 am 05:56 Partly Cloudy 48 8.9 36 2.2 63 63 E 14 22 29.91 1013 10 16.0934 0 0
6:56 am 06:56 Partly Cloudy 47 8.3 36 2.2 66 66 E 17 28 29.87 1012 10 16.0934 0 0
7:56 am 07:56 Mostly Cloudy 47 8.3 36 2.2 66 66 E 16 26 29.89 1012 10 16.0934 0 0
8:56 am 08:56 Cloudy 48 8.9 37 2.8 66 66 ESE 16 26 29.88 1012 10 16.0934 0 0
9:56 am 09:56 Mostly Cloudy 51 10.6 40 4.4 66 66 SE 13 20 29.84 1011 10 16.0934 0 0
10:56 am 10:56 Mostly Cloudy 56 13.3 45 7.2 67 67 SSE 14 22 29.83 1010 10 16.0934 0 0
11:56 am 11:56 Mostly Cloudy 62 16.7 50 10 65 65 SSE 13 20 29.78 1009 10 16.0934 0 0
12:56 pm 12:56 Cloudy 68 20 55 12.8 63 63 SSE 12 19 29.74 1007 10 16.0934 0 0
1:56 pm 13:56 Mostly Sunny 72 22.2 56 13.3 57 57 S 13 20 29.7 1006 10 16.0934 0 0
2:56 pm 14:56 Sunny 75 23.9 55 12.8 50 50 S 16 26 29.66 1004 10 16.0934 0 0
3:56 pm 15:56 Sunny 75 23.9 53 11.7 46 46 S 16 26 29.63 1003 10 16.0934 0 0
4:56 pm 16:56 Mostly Sunny 75 23.9 52 11.1 45 45 S 15 24 29.61 1003 10 16.0934 0 0
5:56 pm 17:56 Partly Cloudy 74 23.3 52 11.1 46 46 S 13 20 29.61 1003 10 16.0934 0 0
6:56 pm 18:56 Mostly Cloudy 73 22.8 52 11.1 48 48 S 9 15 29.6 1003 10 16.0934 0 0
7:56 pm 19:56 Sunny 70 21.1 52 11.1 53 53 S 6 9 29.61 1003 10 16.0934 0 0
8:56 pm 20:56 Clear 67 19.4 51 10.6 57 57 S 6 9 29.61 1003 10 16.0934 0 0
9:56 pm 21:56 Clear 67 19.4 52 11.1 59 59 SSW 8 13 29.62 1003 10 16.0934 0 0
10:56 pm 22:56 Cloudy with Light Rain 59 15 51 10.6 75 75 N 13 20 29.65 1004 10 16.0934 0 0.0254
11:56 pm 23:56 Cloudy with Nearby Thunderstorms 56 13.3 53 11.7 90 90 NNW 10 17 29.65 1004 10 16.0934 0.02 0.508

Powered by AerisWeather